This is the latest recevied weather packets stored in our database for station/object KI8L. If no packets are shown the sender has not sent any weather packets the latest 10 day(s).
| Time | Temp. | Humidity | Pressure | Rain* | Wind** | Luminosity | Snow |
|---|---|---|---|---|---|---|---|
| 1777478409 | 12.22° C | 99% | 1011.6 hPa | 0 mm | - | 241 W/m² | - |
| 1777478106 | 12.22° C | 99% | 1012 hPa | 1.27 mm | - | 225 W/m² | - |
| 1777477802 | 12.22° C | 99% | 1011.8 hPa | 3.05 mm | - | 185 W/m² | - |
| 1777477497 | 12.22° C | 99% | 1011.8 hPa | 3.05 mm | - | 82 W/m² | - |
| 1777477194 | 12.22° C | 99% | 1011.8 hPa | 4.32 mm | - | 76 W/m² | - |
| 1777476891 | 11.67° C | 99% | 1012.1 hPa | 4.83 mm | - | 42 W/m² | - |
| 1777476589 | 11.67° C | 99% | 1012.5 hPa | 4.32 mm | - | 25 W/m² | - |
| 1777476285 | 12.22° C | 99% | 1012.6 hPa | 4.32 mm | - | 24 W/m² | - |
| 1777475980 | 12.22° C | 99% | 1012.8 hPa | 4.32 mm | - | 17 W/m² | - |
| 1777475677 | 12.22° C | 99% | 1012.4 hPa | 4.83 mm | - | 32 W/m² | - |
| 1777475374 | 12.22° C | 99% | 1012.2 hPa | 3.05 mm | - | 53 W/m² | - |
| 1777475074 | 12.22° C | 99% | 1012.2 hPa | 0 mm | - | 39 W/m² | - |
| 1777474771 | 12.78° C | 99% | 1012 hPa | 0 mm | - | 22 W/m² | - |
| 1777474467 | 12.78° C | 99% | 1011.8 hPa | 0 mm | - | 79 W/m² | - |
| 1777474163 | 12.78° C | 99% | 1011.8 hPa | 0 mm | - | 108 W/m² | - |
| 1777473861 | 12.22° C | 99% | 1011.9 hPa | 0 mm | - | 98 W/m² | - |
| 1777473558 | 12.22° C | 99% | 1012 hPa | 0 mm | - | 96 W/m² | - |
| 1777473254 | 12.22° C | 99% | 1012 hPa | 0 mm | - | 100 W/m² | - |
| 1777472950 | 12.78° C | 99% | 1012.1 hPa | 0 mm | - | 118 W/m² | - |
| 1777472647 | 12.78° C | 99% | 1012 hPa | 0 mm | - | 168 W/m² | - |
| 1777472343 | 12.22° C | 99% | 1011.9 hPa | 0 mm | - | 144 W/m² | - |
| 1777472041 | 12.22° C | 99% | 1012.2 hPa | 0 mm | - | 142 W/m² | - |
| 1777471741 | 11.67° C | 99% | 1012.2 hPa | 1.78 mm | - | 119 W/m² | - |
| 1777471438 | 11.67° C | 99% | 1012.4 hPa | 1.78 mm | - | 112 W/m² | - |
| 1777471134 | 11.67° C | 99% | 1012.6 hPa | 0 mm | - | 84 W/m² | - |
* Rain latest hour (hover to see other rain measurements)
** Current wind speed in m/s (hover to see current wind gust speed)